FW6992 Weather Reports


time (UTC)temp
C
wind
direction
speed
KPH
gust
KPH
rain 1hr
cm
rain 24hr
cm
rain mn
cm
humidity
%
barometer
mb
20260504130719 15 130 3.2 4.8 0.00 0.00 0.00 48 1016.9
20260504130214 16 215 0.0 1.6 0.00 0.00 0.00 49 1016.8
20260504120139 12 187 0.0 0.0 0.00 0.00 0.00 60 1017.0
20260504110606 8 91 3.2 3.2 0.00 0.00 0.00 67 1017.3
20260504100528 8 108 0.0 1.6 0.00 0.00 0.00 62 1016.8
20260504081921 10 84 1.6 3.2 0.00 0.00 0.00 61 1017.1
20260504081418 10 138 0.0 3.2 0.00 0.00 0.00 61 1016.9
20260504080914 10 131 0.0 3.2 0.00 0.00 0.00 60 1017.3
20260504080411 10 168 0.0 1.6 0.00 0.00 0.00 60 1016.9
20260504070338 10 146 0.0 1.6 0.00 0.00 0.00 57 1017.0
20260504050726 11 145 0.0 0.0 0.00 0.00 0.00 50 1017.4
20260504050224 11 187 0.0 1.6 0.00 0.00 0.00 51 1017.5
20260504045721 11 171 0.0 0.0 0.00 0.00 0.00 51 1017.2
20260504045215 11 156 0.0 0.0 0.00 0.00 0.00 50 1017.1
20260504044713 11 152 0.0 0.0 0.00 0.00 0.00 50 1017.2
20260504044210 11 145 0.0 0.0 0.00 0.00 0.00 49 1017.0
20260504043707 11 137 0.0 1.6 0.00 0.00 0.00 48 1017.2
20260504043204 11 157 0.0 3.2 0.00 0.00 0.00 48 1017.1
20260504042701 11 178 0.0 0.0 0.00 0.00 0.00 48 1017.2
20260504042158 11 140 0.0 0.0 0.00 0.00 0.00 49 1017.2
20260504041653 11 162 0.0 3.2 0.00 0.00 0.00 49 1017.2
20260504041149 11 156 0.0 0.0 0.00 0.00 0.00 50 1017.1
20260504040647 11 156 0.0 0.0 0.00 0.00 0.00 49 1017.1
20260504040144 11 134 0.0 1.6 0.00 0.00 0.00 49 1017.2
20260504035640 11 146 1.6 3.2 0.00 0.00 0.00 51 1016.9
20260504035137 11 130 3.2 3.2 0.00 0.00 0.00 47 1017.1
20260504034635 11 145 0.0 0.0 0.00 0.00 0.00 47 1017.1
20260504034132 11 156 0.0 0.0 0.00 0.00 0.00 47 1016.8
20260504033629 11 134 0.0 0.0 0.00 0.00 0.00 47 1016.9
20260504033127 11 168 0.0 0.0 0.00 0.00 0.00 47 1016.9
20260504032623 11 176 0.0 1.6 0.00 0.00 0.00 47 1017.0
20260504032120 11 162 0.0 0.0 0.00 0.00 0.00 46 1016.8
20260504031618 11 152 0.0 1.6 0.00 0.00 0.00 47 1016.9
20260504031114 11 151 0.0 3.2 0.00 0.00 0.00 47 1017.0
20260504030611 11 181 0.0 0.0 0.00 0.00 0.00 47 1017.1
20260504030107 11 151 0.0 1.6 0.00 0.00 0.00 48 1016.9
20260504025604 11 170 1.6 3.2 0.00 0.00 0.00 48 1017.1
20260504025101 11 145 0.0 0.0 0.00 0.00 0.00 46 1017.0
20260504024558 11 54 0.0 1.6 0.00 0.00 0.00 47 1016.9
20260504024055 11 149 1.6 1.6 0.00 0.00 0.00 47 1017.1
20260504023551 11 134 0.0 0.0 0.00 0.00 0.00 49 1016.9
20260504023047 11 156 0.0 0.0 0.00 0.00 0.00 48 1016.8
20260504022543 11 156 0.0 0.0 0.00 0.00 0.00 46 1016.7
20260504022040 11 156 0.0 0.0 0.00 0.00 0.00 46 1016.8
20260504021538 11 156 0.0 0.0 0.00 0.00 0.00 47 1016.8
20260504021035 11 156 0.0 0.0 0.00 0.00 0.00 46 1016.7
20260504020532 11 156 0.0 1.6 0.00 0.00 0.00 46 1016.7
20260504020028 11 133 1.6 1.6 0.00 0.00 0.00 46 1016.4
20260504015524 11 142 0.0 1.6 0.00 0.00 0.00 45 1016.4
20260504015020 11 145 0.0 0.0 0.00 0.00 0.00 44 1016.3
20260504014516 11 156 0.0 0.0 0.00 0.00 0.00 44 1016.2
20260504014014 11 145 0.0 0.0 0.00 0.00 0.00 43 1016.3
20260504013512 11 166 0.0 0.0 0.00 0.00 0.00 43 1016.2
20260504013008 11 168 0.0 0.0 0.00 0.00 0.00 43 1016.1
20260504012506 11 168 0.0 0.0 0.00 0.00 0.00 42 1016.1
20260504012003 12 137 0.0 0.0 0.00 0.00 0.00 43 1016.1
20260504011459 12 162 0.0 0.0 0.00 0.00 0.00 42 1015.9
20260504010955 12 150 0.0 1.6 0.00 0.00 0.00 41 1016.3
20260504010452 12 233 0.0 0.0 0.00 0.00 0.00 39 1016.1
20260504005947 12 233 0.0 0.0 0.00 0.00 0.00 39 1016.1
20260504005445 12 233 0.0 0.0 0.00 0.00 0.00 38 1016.1
20260504004942 12 245 0.0 0.0 0.00 0.00 0.00 37 1016.0
20260504004439 13 245 0.0 0.0 0.00 0.00 0.00 37 1016.0
20260504003937 13 245 0.0 0.0 0.00 0.00 0.00 37 1016.0
20260504003433 13 150 0.0 0.0 0.00 0.00 0.00 36 1015.8
20260504002929 13 168 0.0 0.0 0.00 0.00 0.00 35 1015.8
20260504002426 13 168 0.0 0.0 0.00 0.00 0.00 35 1016.1
20260504001924 13 347 0.0 0.0 0.00 0.00 0.00 34 1015.8
20260504001421 13 347 0.0 0.0 0.00 0.00 0.00 34 1015.8
20260504000918 14 347 0.0 0.0 0.00 0.00 0.00 34 1015.9
20260504000416 14 347 0.0 0.0 0.00 0.00 0.00 33 1015.9
20260503235912 15 347 0.0 0.0 0.00 0.00 0.00 31 1015.9
20260503235410 15 163 0.0 1.6 0.00 0.00 0.00 30 1015.7
20260503234908 15 76 0.0 1.6 0.00 0.00 0.00 30 1015.7
20260503234405 15 336 0.0 3.2 0.00 0.00 0.00 29 1015.6
20260503233902 15 201 0.0 0.0 0.00 0.00 0.00 29 1015.9
20260503233359 15 343 0.0 0.0 0.00 0.00 0.00 28 1015.5
20260503232855 16 233 0.0 1.6 0.00 0.00 0.00 28 1015.7
20260503232352 16 87 0.0 0.0 0.00 0.00 0.00 28 1015.5
20260503231850 16 124 0.0 1.6 0.00 0.00 0.00 27 1015.5
20260503231347 16 76 1.6 1.6 0.00 0.00 0.00 26 1015.6
20260503230843 16 330 0.0 3.2 0.00 0.00 0.00 27 1015.8
20260503230341 16 321 0.0 3.2 0.00 0.00 0.00 24 1015.5
20260503225839 17 210 0.0 3.2 0.00 0.00 0.00 23 1015.8
20260503225334 17 290 0.0 3.2 0.00 0.00 0.00 23 1015.4
20260503224830 17 330 0.0 3.2 0.00 0.00 0.00 26 1015.5
20260503224327 17 106 0.0 1.6 0.00 0.00 0.00 27 1015.5
20260503223825 17 224 0.0 0.0 0.00 0.00 0.00 24 1015.4
20260503223322 17 71 3.2 4.8 0.00 0.00 0.00 23 1015.4
20260503222818 17 185 0.0 3.2 0.00 0.00 0.00 25 1015.5
20260503222317 17 296 0.0 3.2 0.00 0.00 0.00 22 1015.5
20260503221814 17 311 0.0 0.0 0.00 0.00 0.00 22 1015.5
20260503221313 18 237 3.2 3.2 0.00 0.00 0.00 22 1015.7
20260503220808 18 193 3.2 3.2 0.00 0.00 0.00 27 1015.7
20260503220305 18 216 1.6 3.2 0.00 0.00 0.00 21 1015.8
20260503215802 18 213 0.0 3.2 0.00 0.00 0.00 25 1015.8
20260503215259 18 92 1.6 3.2 0.00 0.00 0.00 23 1015.7
20260503214757 18 64 0.0 1.6 0.00 0.00 0.00 21 1015.8
20260503214254 18 144 0.0 3.2 0.00 0.00 0.00 22 1015.9
20260503213752 18 109 1.6 4.8 0.00 0.00 0.00 21 1015.7
20260503213249 18 207 3.2 4.8 0.00 0.00 0.00 21 1015.5
20260503212745 18 179 4.8 4.8 0.00 0.00 0.00 26 1015.6
20260503212243 18 152 3.2 3.2 0.00 0.00 0.00 25 1015.8
20260503211741 18 199 1.6 3.2 0.00 0.00 0.00 24 1015.8
20260503211237 18 267 0.0 6.4 0.00 0.00 0.00 21 1015.8
20260503210732 18 324 3.2 4.8 0.00 0.00 0.00 24 1016.0
20260503210230 19 185 0.0 3.2 0.00 0.00 0.00 23 1016.0
20260503205725 18 290 0.0 3.2 0.00 0.00 0.00 22 1015.9
20260503205221 18 223 0.0 3.2 0.00 0.00 0.00 28 1016.0
20260503204718 18 335 1.6 3.2 0.00 0.00 0.00 23 1016.1
20260503204216 18 162 0.0 3.2 0.00 0.00 0.00 25 1016.1
20260503203713 20 324 1.6 4.8 0.00 0.00 0.00 21 1016.1
20260503203210 19 211 3.2 4.8 0.00 0.00 0.00 22 1016.3
20260503202708 18 219 1.6 3.2 0.00 0.00 0.00 26 1016.2
20260503202205 19 179 1.6 1.6 0.00 0.00 0.00 24 1016.3
20260503201703 19 67 0.0 6.4 0.00 0.00 0.00 21 1016.4
20260503201200 20 263 0.0 4.8 0.00 0.00 0.00 23 1016.5
20260503200656 19 310 3.2 9.7 0.00 0.00 0.00 23 1016.4
20260503200154 19 192 1.6 3.2 0.00 0.00 0.00 25 1016.8
20260503195650 18 174 0.0 4.8 0.00 0.00 0.00 26 1016.8
20260503195147 17 101 0.0 9.7 0.00 0.00 0.00 24 1016.7
20260503194644 19 172 0.0 6.4 0.00 0.00 0.00 22 1016.8
20260503194140 20 173 3.2 9.7 0.00 0.00 0.00 20 1016.7
20260503193637 20 330 0.0 3.2 0.00 0.00 0.00 21 1017.0
20260503193132 19 93 3.2 4.8 0.00 0.00 0.00 21 1017.1
20260503192628 18 130 0.0 4.8 0.00 0.00 0.00 23 1017.2
20260503192124 19 187 1.6 1.6 0.00 0.00 0.00 22 1017.3
20260503191621 19 314 3.2 3.2 0.00 0.00 0.00 23 1017.4
20260503191118 18 281 1.6 6.4 0.00 0.00 0.00 29 1017.5
20260503190615 19 63 0.0 4.8 0.00 0.00 0.00 25 1017.6
20260503190112 18 230 3.2 6.4 0.00 0.00 0.00 22 1017.7
20260503185609 18 261 3.2 4.8 0.00 0.00 0.00 23 1017.7
20260503185108 18 302 0.0 4.8 0.00 0.00 0.00 23 1017.9
20260503184603 18 83 3.2 4.8 0.00 0.00 0.00 27 1017.6
20260503184100 18 312 4.8 6.4 0.00 0.00 0.00 24 1017.8
20260503183557 17 76 0.0 6.4 0.00 0.00 0.00 24 1018.0
20260503183054 17 295 8.0 16.1 0.00 0.00 0.00 26 1018.1
20260503182552 18 308 3.2 6.4 0.00 0.00 0.00 24 1018.3
20260503182050 17 205 3.2 4.8 0.00 0.00 0.00 27 1018.4
20260503181547 17 247 1.6 3.2 0.00 0.00 0.00 28 1018.2
20260503181043 16 102 1.6 3.2 0.00 0.00 0.00 25 1018.2
20260503180541 16 101 1.6 6.4 0.00 0.00 0.00 27 1018.3
20260503180039 17 224 3.2 4.8 0.00 0.00 0.00 25 1018.5
20260503175536 17 209 0.0 6.4 0.00 0.00 0.00 26 1018.5
20260503175033 16 199 4.8 6.4 0.00 0.00 0.00 26 1018.7
20260503174530 16 74 0.0 6.4 0.00 0.00 0.00 29 1018.6
20260503174026 17 212 1.6 4.8 0.00 0.00 0.00 26 1018.5
20260503173520 16 251 0.0 4.8 0.00 0.00 0.00 36 1018.6
20260503173017 16 170 0.0 4.8 0.00 0.00 0.00 32 1018.7
20260503172515 16 288 1.6 3.2 0.00 0.00 0.00 28 1018.8
20260503172012 15 45 1.6 4.8 0.00 0.00 0.00 26 1018.9
20260503171508 15 257 1.6 3.2 0.00 0.00 0.00 30 1018.7
20260503171006 15 186 3.2 6.4 0.00 0.00 0.00 28 1019.1
20260503170502 15 185 3.2 8.0 0.00 0.00 0.00 26 1019.0
20260503150854 12 239 3.2 4.8 0.00 0.00 0.00 32 1020.1
20260503150350 13 190 3.2 6.4 0.00 0.00 0.00 32 1020.4
20260503140315 11 92 3.2 8.0 0.00 0.00 0.00 33 1020.1